CW9585 Weather Reports


Display with metric or nautical units.
time (UTC)temp
F
wind
direction
speed
MPH
gust
MPH
rain 1hr
in
rain 24hr
in
rain mn
in
humidity
%
barometer
mb
20260506051206 59 322 0.0 0.0 0.00 0.00 0.00 82 1018.3
20260506050704 59 322 0.0 0.0 0.00 0.00 0.00 82 1018.3
20260506050206 58 322 0.0 0.0 0.00 0.00 0.00 82 1018.3
20260506043705 59 322 0.0 2.0 0.00 0.00 0.00 82 1018.0
20260506043204 59 322 0.0 2.0 0.00 0.00 0.00 82 1017.9
20260506042705 59 315 0.0 2.0 0.00 0.00 0.00 82 1017.9
20260506042205 59 315 0.0 3.0 0.00 0.00 0.00 82 1017.8
20260506041205 59 28 2.0 4.0 0.00 0.00 0.00 82 1017.9
20260506040704 59 0 2.0 4.0 0.00 0.00 0.00 82 1017.8
20260506040205 59 318 1.0 2.0 0.00 0.00 0.00 82 1017.7
20260506035205 59 344 0.0 3.0 0.00 0.00 0.00 82 1017.6
20260506034704 59 341 1.0 3.0 0.00 0.00 0.00 82 1017.5
20260506033704 59 338 1.0 5.0 0.00 0.00 0.00 81 1017.3
20260506033206 59 5 2.0 5.0 0.00 0.00 0.00 81 1017.3
20260506032705 59 323 2.0 5.0 0.00 0.00 0.00 81 1017.3
20260506031705 59 355 2.0 4.0 0.00 0.00 0.00 81 1017.0
20260506031205 59 13 2.0 4.0 0.00 0.00 0.00 81 1017.0
20260506030704 59 28 1.0 4.0 0.00 0.00 0.00 81 1017.0
20260506030205 59 28 1.0 3.0 0.00 0.00 0.00 81 1016.8
20260506025705 59 43 1.0 3.0 0.00 0.00 0.00 81 1016.8
20260506025204 59 339 1.0 5.0 0.00 0.00 0.00 81 1016.8
20260506024704 59 15 1.0 5.0 0.00 0.00 0.00 81 1016.7
20260506024206 59 35 1.0 7.0 0.00 0.00 0.00 81 1016.7
20260506023705 59 88 2.0 7.0 0.00 0.00 0.00 81 1016.7
20260506023205 59 74 3.0 7.0 0.00 0.00 0.00 80 1016.6
20260506022204 60 63 2.0 6.0 0.00 0.00 0.00 80 1016.7
20260506021704 60 78 2.0 7.0 0.00 0.00 0.00 80 1016.7
20260506020705 60 86 3.0 7.0 0.00 0.00 0.00 80 1016.7
20260506015705 60 45 2.0 5.0 0.00 0.00 0.00 79 1016.7
20260506014204 60 82 2.0 7.0 0.00 0.00 0.00 79 1016.6
20260506013704 60 96 3.0 9.0 0.00 0.00 0.00 79 1016.6
20260506012704 60 113 3.0 9.0 0.00 0.00 0.00 78 1016.6
20260506012205 60 79 3.0 6.0 0.00 0.00 0.00 78 1016.6
20260506011704 60 59 3.0 6.0 0.00 0.00 0.00 78 1016.5
20260506010204 61 74 2.0 6.0 0.00 0.00 0.00 78 1016.4
20260506005704 61 111 3.0 6.0 0.00 0.00 0.00 77 1016.4
20260506005204 61 107 2.0 6.0 0.00 0.00 0.00 77 1016.4
20260506004705 61 115 1.0 5.0 0.00 0.00 0.00 77 1016.4
20260506004205 61 167 1.0 5.0 0.00 0.00 0.00 77 1016.3
20260506003704 61 101 1.0 4.0 0.00 0.00 0.00 76 1016.4
20260506003205 61 217 2.0 6.0 0.00 0.00 0.00 76 1016.3
20260506002705 61 186 2.0 6.0 0.00 0.00 0.00 76 1016.3
20260506002204 61 223 2.0 6.0 0.00 0.00 0.00 76 1016.3
20260506001704 61 213 2.0 5.0 0.00 0.00 0.00 75 1016.3
20260506001204 62 190 2.0 6.0 0.00 0.00 0.00 75 1016.3
20260506000205 62 224 3.0 6.0 0.00 0.00 0.00 74 1016.2
20260505235704 62 163 2.0 6.0 0.00 0.00 0.00 74 1016.2
20260505235205 62 190 2.0 7.0 0.00 0.00 0.00 75 1016.1
20260505234704 62 188 2.0 7.0 0.00 0.00 0.00 75 1016.1
20260505233705 62 196 3.0 8.0 0.00 0.00 0.00 76 1016.2
20260505233205 61 223 4.0 8.0 0.00 0.00 0.00 76 1016.1
20260505232704 61 274 3.0 8.0 0.00 0.00 0.00 76 1016.1
20260505232205 61 246 3.0 7.0 0.00 0.00 0.00 77 1016.1
20260505231704 61 232 3.0 7.0 0.00 0.00 0.00 78 1016.1
20260505231204 61 214 3.0 7.0 0.00 0.00 0.00 78 1016.2
20260505230704 61 250 3.0 8.0 0.00 0.00 0.00 79 1016.3
20260505225204 60 260 4.0 8.0 0.00 0.00 0.00 79 1016.3
20260505224704 60 225 3.0 7.0 0.00 0.00 0.00 80 1016.3
20260505224204 60 248 3.0 10.0 0.00 0.00 0.00 81 1016.3
20260505223705 60 188 4.0 10.0 0.00 0.00 0.00 82 1016.4
20260505223205 60 251 5.0 10.0 0.00 0.00 0.00 82 1016.5
20260505222705 60 263 4.0 8.0 0.00 0.00 0.00 83 1016.5
20260505222205 60 172 4.0 8.0 0.00 0.00 0.00 84 1016.5
20260505220705 60 194 4.0 8.0 0.00 0.00 0.00 83 1016.6
20260505220205 59 203 4.0 8.0 0.00 0.00 0.00 83 1016.7
20260505214705 60 229 4.0 8.0 0.00 0.00 0.00 82 1016.6
20260505214204 60 217 3.0 6.0 0.00 0.00 0.00 81 1016.7
20260505213704 60 197 2.0 7.0 0.00 0.00 0.00 81 1016.8
20260505213204 60 187 3.0 7.0 0.00 0.00 0.00 81 1016.8
20260505212204 60 213 4.0 7.0 0.00 0.00 0.00 80 1016.9
20260505211705 60 191 3.0 7.0 0.00 0.00 0.00 80 1016.9
20260505211204 60 210 2.0 6.0 0.00 0.00 0.00 81 1016.8
20260505205205 59 218 3.0 7.0 0.00 0.00 0.00 84 1016.8
20260505204704 59 244 3.0 8.0 0.00 0.00 0.00 85 1016.7
20260505204205 59 177 4.0 8.0 0.00 0.00 0.00 85 1016.8
20260505203705 59 257 5.0 8.0 0.00 0.00 0.00 84 1016.8
20260505203205 59 240 4.0 10.0 0.00 0.00 0.00 84 1016.9
20260505202704 59 212 4.0 10.0 0.00 0.00 0.00 84 1016.9
20260505202205 59 209 3.0 7.0 0.00 0.00 0.00 84 1016.9
20260505201705 59 122 3.0 10.0 0.00 0.00 0.00 84 1016.9
20260505201204 59 196 3.0 10.0 0.00 0.00 0.00 84 1016.9
20260505200704 59 229 4.0 10.0 0.00 0.00 0.00 83 1017.0
20260505200205 59 220 5.0 8.0 0.00 0.00 0.00 83 1017.1
20260505195206 59 231 4.0 8.0 0.00 0.00 0.00 84 1017.0
20260505194705 58 206 4.0 8.0 0.00 0.00 0.00 83 1017.0
20260505194204 58 191 4.0 11.0 0.00 0.00 0.00 83 1017.1
20260505193205 58 184 4.0 11.0 0.00 0.00 0.00 83 1017.2
20260505192705 58 207 4.0 11.0 0.00 0.00 0.00 83 1017.1
20260505191705 58 228 5.0 12.0 0.00 0.00 0.00 82 1017.2
20260505191204 58 189 5.0 12.0 0.00 0.00 0.00 81 1017.2
20260505190705 58 186 5.0 12.0 0.00 0.00 0.00 81 1017.2
20260505190206 58 213 4.0 9.0 0.00 0.00 0.00 81 1017.2
20260505185704 59 218 4.0 8.0 0.00 0.00 0.00 81 1017.2
20260505185205 59 215 4.0 8.0 0.00 0.00 0.00 80 1017.0
20260505184704 59 224 5.0 10.0 0.00 0.00 0.00 80 1017.0
20260505184205 59 224 5.0 10.0 0.00 0.00 0.00 80 1017.0
20260505183704 59 258 4.0 9.0 0.00 0.00 0.00 79 1017.1
20260505183206 59 158 4.0 9.0 0.00 0.00 0.00 79 1017.1
20260505182205 59 242 5.0 11.0 0.00 0.00 0.00 79 1016.9
20260505181205 60 193 5.0 11.0 0.00 0.00 0.00 78 1016.8
20260505180204 60 207 5.0 10.0 0.00 0.00 0.00 77 1016.7
20260505175705 60 215 5.0 9.0 0.00 0.00 0.00 76 1016.7
20260505174704 59 191 4.0 8.0 0.00 0.00 0.00 75 1016.6
20260505174205 59 173 4.0 8.0 0.00 0.00 0.00 75 1016.5
20260505173205 58 192 4.0 7.0 0.00 0.00 0.00 76 1016.5
20260505172705 58 196 4.0 7.0 0.00 0.00 0.00 76 1016.5
20260505171705 58 220 4.0 7.0 0.00 0.00 0.00 76 1016.5
20260505171204 58 195 4.0 7.0 0.00 0.00 0.00 76 1016.6
20260505170705 58 179 4.0 7.0 0.00 0.00 0.00 76 1016.6
20260505170205 58 197 4.0 7.0 0.00 0.00 0.00 75 1016.6
20260505165705 58 210 4.0 7.0 0.00 0.00 0.00 76 1016.5
20260505165204 58 190 3.0 7.0 0.00 0.00 0.00 76 1016.5
20260505164705 58 187 3.0 5.0 0.00 0.00 0.00 76 1016.4
20260505164204 58 242 2.0 5.0 0.00 0.00 0.00 77 1016.3
20260505163704 57 241 2.0 5.0 0.00 0.00 0.00 78 1016.2
20260505163204 57 281 2.0 5.0 0.00 0.00 0.00 78 1016.3
20260505162705 57 237 1.0 4.0 0.00 0.00 0.00 78 1016.3
20260505162204 56 282 1.0 3.0 0.00 0.00 0.00 78 1016.3
20260505161705 56 282 1.0 4.0 0.00 0.00 0.00 78 1016.3
20260505161204 56 10 2.0 4.0 0.00 0.00 0.00 78 1016.2
20260505160705 56 338 1.0 4.0 0.00 0.00 0.00 78 1016.1
20260505160204 56 272 2.0 4.0 0.00 0.00 0.00 78 1016.2
20260505153204 55 266 2.0 4.0 0.00 0.00 0.00 79 1016.3
20260505152704 55 266 2.0 4.0 0.00 0.00 0.00 79 1016.2
20260505152204 55 266 2.0 4.0 0.00 0.00 0.00 79 1016.2
20260505151205 55 279 0.0 3.0 0.00 0.00 0.00 80 1016.1
20260505150204 55 350 0.0 0.0 0.00 0.00 0.00 80 1016.0
20260505140204 54 355 2.0 4.0 0.00 0.00 0.00 79 1015.7
20260505130204 54 295 0.0 3.0 0.00 0.00 0.00 78 1015.1
20260505124705 54 299 1.0 3.0 0.00 0.00 0.00 78 1015.3
20260505124205 55 299 1.0 2.0 0.00 0.00 0.00 77 1015.3
20260505123704 54 299 0.0 2.0 0.00 0.00 0.00 77 1015.3
20260505123204 54 299 0.0 0.0 0.00 0.00 0.00 77 1015.3
20260505122204 54 339 0.0 6.0 0.00 0.00 0.00 77 1015.4
20260505120704 55 296 2.0 5.0 0.00 0.00 0.00 77 1015.4
20260505120205 55 306 3.0 5.0 0.00 0.00 0.00 77 1015.4
20260505115705 55 297 3.0 5.0 0.00 0.00 0.00 77 1015.4
20260505115205 55 321 3.0 5.0 0.00 0.00 0.00 77 1015.3
20260505114704 55 316 3.0 5.0 0.00 0.00 0.00 78 1015.2
20260505114204 55 327 3.0 5.0 0.00 0.00 0.00 78 1015.2
20260505113704 55 313 2.0 6.0 0.00 0.00 0.00 78 1015.3
20260505113204 54 319 3.0 6.0 0.00 0.00 0.00 79 1015.4
20260505112704 54 347 2.0 6.0 0.00 0.00 0.00 79 1015.3
20260505112204 55 310 1.0 4.0 0.00 0.00 0.00 79 1015.3
20260505111704 55 340 1.0 4.0 0.00 0.00 0.00 80 1015.2
20260505111204 55 317 1.0 3.0 0.00 0.00 0.00 80 1015.2
20260505110205 55 304 1.0 4.0 0.00 0.00 0.00 81 1015.3
20260505102204 55 12 0.0 0.0 0.00 0.00 0.00 82 1015.2
20260505101705 55 51 0.0 0.0 0.00 0.00 0.00 82 1015.2
20260505100704 55 51 0.0 0.0 0.00 0.00 0.00 82 1015.2
20260505095705 55 22 0.0 0.0 0.00 0.00 0.00 82 1015.4
20260505095205 55 22 0.0 0.0 0.00 0.00 0.00 81 1015.4
20260505094704 55 22 0.0 0.0 0.00 0.00 0.00 81 1015.4
20260505094204 55 22 0.0 0.0 0.00 0.00 0.00 81 1015.3
20260505093706 55 22 0.0 0.0 0.00 0.00 0.00 81 1015.3
20260505093205 55 26 0.0 0.0 0.00 0.00 0.00 81 1015.3
20260505092704 55 26 0.0 0.0 0.00 0.00 0.00 81 1015.4
20260505092205 55 26 0.0 2.0 0.00 0.00 0.00 81 1015.5
20260505091705 55 26 0.0 2.0 0.00 0.00 0.00 81 1015.6
20260505091204 55 26 0.0 2.0 0.00 0.00 0.00 81 1015.7
20260505090704 55 44 0.0 0.0 0.00 0.00 0.00 81 1015.8
20260505085205 55 44 0.0 0.0 0.00 0.00 0.00 80 1015.8
20260505084705 55 34 0.0 0.0 0.00 0.00 0.00 80 1015.8
20260505084205 55 34 0.0 0.0 0.00 0.00 0.00 80 1015.8
20260505083705 55 36 0.0 0.0 0.00 0.00 0.00 81 1015.8
20260505083205 55 36 0.0 0.0 0.00 0.00 0.00 81 1015.8
20260505082204 55 36 0.0 0.0 0.00 0.00 0.00 80 1015.8
20260505081705 55 36 0.0 0.0 0.00 0.00 0.00 80 1015.9
20260505080704 55 37 0.0 0.0 0.00 0.00 0.00 80 1015.9
20260505080204 55 45 0.0 0.0 0.00 0.00 0.00 80 1016.0
20260505075705 55 355 0.0 0.0 0.00 0.00 0.00 80 1016.0
20260505075204 55 355 0.0 0.0 0.00 0.00 0.00 80 1016.0
20260505074705 55 355 0.0 0.0 0.00 0.00 0.00 80 1016.0
20260505074205 55 334 0.0 0.0 0.00 0.00 0.00 80 1016.0
20260505073705 55 320 0.0 0.0 0.00 0.00 0.00 79 1015.9
20260505073204 55 333 0.0 1.0 0.00 0.00 0.00 80 1015.9
20260505072704 56 320 0.0 1.0 0.00 0.00 0.00 80 1015.8
20260505072205 56 5 0.0 1.0 0.00 0.00 0.00 80 1015.8
20260505071706 56 25 0.0 3.0 0.00 0.00 0.00 80 1015.8
20260505071205 56 25 0.0 3.0 0.00 0.00 0.00 80 1015.8
20260505070206 56 321 1.0 3.0 0.00 0.00 0.00 79 1015.8
20260505065205 56 206 0.0 0.0 0.00 0.00 0.00 79 1015.8
20260505064205 56 206 0.0 0.0 0.00 0.00 0.00 79 1015.6
20260505063706 56 206 0.0 0.0 0.00 0.00 0.00 79 1015.6
20260505063204 56 206 0.0 0.0 0.00 0.00 0.00 79 1015.5
20260505062704 56 206 0.0 0.0 0.00 0.00 0.00 79 1015.5
20260505061704 57 206 0.0 0.0 0.00 0.00 0.00 79 1015.6
20260505061205 57 206 0.0 0.0 0.00 0.00 0.00 78 1015.6
20260505060705 56 206 0.0 0.0 0.00 0.00 0.00 78 1015.7
20260505060205 56 66 0.0 2.0 0.00 0.00 0.00 78 1015.7
20260505055205 57 66 1.0 2.0 0.00 0.00 0.00 78 1015.9
20260505054705 57 66 1.0 2.0 0.00 0.00 0.00 78 1015.9